Location: Favalello
(42.2939°N, 9.2706°E)
Time: 03:22:38
(UTC+00:00)

COSMOS 2428 - Pass Details

Date: 06 December 2019
Orbit: 844 x 858 km, 70.9° (Epoch: 22 January)

Event Time Altitude Azimuth Distance (km) Brightness Sun altitude
Rises 17:25:40 0° 222° (SW) 3,390 6.8 -17.0°
Reaches altitude 10° 17:28:12 10° 228° (SW) 2,459 6.1 -17.5°
Maximum altitude 17:33:35 45° 301° (WNW) 1,146 3.7 -18.4°
Drops below altitude 10° 17:39:02 10° 13° (NNE) 2,480 4.9 -19.4°
Enters shadow 17:39:26 - 15° (NNE) 2,625 5.0 -19.5°
